sat.trackr.live / text

‹ back to catalog

STARLINK-31292

NORAD 59081 · 2024-041H

PAYLOAD ACTIVE UNKNOWN

§ Identity

Operator
Country
US
Launch date
2024-02-29
Launch site
AFETR
Launch vehicle
Mass (kg)
RCS (m²)

Purposes: comms

External: N2YO · Heavens-Above · Gunter

§ Orbital elements

Epoch: 2026-05-24T23:45:02.234016Z

Period
94.27 min
Inclination
43.0026°
Eccentricity
0.0001878
Mean motion
15.27569422 rev/d
Perigee alt
481.8 km
Apogee alt
484.4 km
Semi-major
6,861.2 km
B*
-1.2048e-4
RAAN
239.5424°
Arg perigee
258.6128°
Mean anomaly
101.4513°
Rev number
12,593

§ Raw data

STARLINK-312921 59081U 24041H   26144.98960919 -.00003575  00000+0 -12048-3 0  99912 59081  43.0026 239.5424 0001878 258.6128 101.4513 15.27569422125933

JSON: /api/v1/satellites/59081 · /tle

For live sub-satellite position, see the globe view (requires WebGL).

§ Visibility from observer

Set your observer location to see the next 7 days of passes ≥ 10°. The values pass through the URL so the page stays shareable.

No JS? Fill the form by hand. The geolocation button needs JavaScript.